Flag for U.S.A. Weather past 2 weeks in Gainesville, Florida, U.S.A.

Now
76 °F

Sunny.


Feels Like: 75 °F
Forecast: 69 / 87 °F
Wind: 3 mph from Southwest

Location: Gainesville Regional Airport

Current Time: Sep 18, 2014 at 9:41:33 AM

Latest Report: Sep 18, 2014 at 8:53 AM


Visibility: 10 mi

Pressure: 29.92 "Hg

Humidity: 94%

Dew point: 74 °F

Location of GainesvilleLocation

Historic Weather in Gainesville — Graph

°F

Gainesville temperature yesterday

Maximum temperature yesterday: 85 °F (at 3:53 PM)
Minimum temperature yesterday: 71 °F (at 2:03 AM)
Average temperature yesterday: 76 °F

Past Weeks' High & Low Weather Summary

 TemperatureHumidityPressure
High92 °F (Sep 12, 3:53 PM)100% (Sep 4, 5:53 AM)30.16 "Hg (Sep 4, 5:53 AM)
Low69 °F (Sep 18, 6:53 AM)47% (Sep 3, 4:53 PM)29.85 "Hg (Sep 17, 5:53 PM)
Average78 °F85%30.03 "Hg
* Reported Sep 3 7:53 AM — Sep 18 7:53 AM, Gainesville, Weather by CustomWeather, © 2014

Note: Actual official high and low records may vary slightly from our data, if they occured in-between our weather recording intervals... More about our weather records

Advertising

Gainesville weather history for previous 24 hours

 ConditionsComfort  
Time TempWeatherWind HumidityBarometerVisibility
7:53 AM
Sep 18
71 °FClear.No wind100%29.91 "Hg9 mi
6:53 AM69 °FClear.No wind96%29.90 "Hg10 mi
5:53 AM70 °FClear.No wind97%29.88 "Hg8 mi
4:53 AM70 °FClear.No wind100%29.88 "Hg10 mi
3:53 AM70 °FClear.No wind100%29.87 "Hg9 mi
2:53 AM70 °FClear.No wind100%29.88 "Hg8 mi
1:53 AM72 °FClear.No wind97%29.90 "Hg10 mi
12:53 AM72 °FClear.No wind97%29.91 "Hg10 mi
11:53 PM
Sep 17
72 °FClear.No wind97%29.91 "Hg10 mi
10:53 PM73 °FClear.No wind94%29.92 "Hg10 mi
9:53 PM73 °FClear.6 mph97%29.91 "Hg10 mi
8:53 PM74 °FClear.No wind94%29.88 "Hg10 mi
7:53 PM76 °FSunny.No wind88%29.87 "Hg10 mi
6:53 PM78 °FSunny.6 mph82%29.86 "Hg10 mi
5:53 PM83 °FScattered clouds.6 mph70%29.85 "Hg10 mi
4:53 PM83 °FScattered clouds.5 mph74%29.85 "Hg10 mi
4:02 PM84 °FPartly sunny.7 mph70%29.87 "Hg10 mi
3:53 PM85 °FBroken clouds.8 mph70%29.86 "Hg10 mi
2:53 PM84 °FScattered clouds.6 mph72%29.88 "Hg10 mi
1:53 PM82 °FPartly sunny.5 mph74%29.90 "Hg10 mi
12:53 PM81 °FPassing clouds.No wind74%29.93 "Hg10 mi
11:53 AM82 °FPassing clouds.No wind74%29.94 "Hg10 mi
10:53 AM80 °FPassing clouds.6 mph79%29.95 "Hg10 mi
9:53 AM79 °FSunny.3 mph82%29.95 "Hg10 mi
Weather by CustomWeather, © 2014

See weather overviewHow to use our weather pages